Location: Newark
(44.0167°N, 1.3500°E)
Time: 10:16:40
(UTC+00:00)

CUBEBUG 2 - Visible Passes

Search period start: 10 December 2019 00:00
Search period end: 20 December 2019 00:00
Orbit: 587 x 697 km, 97.6° (Epoch: 09 December)

Date Brightness Start Highest point End Pass type
(mag) Time Alt. Az. Time Alt. Az. Time Alt. Az.
10 Dec ? 05:11:08 10° NNE 05:15:45 83° ESE 05:20:10 10° S visible
10 Dec ? 17:49:33 10° WSW 17:51:18 12° W 17:53:02 10° WNW visible
11 Dec ? 04:00:10 10° NE 04:02:51 15° E 04:05:28 10° SE visible
11 Dec ? 05:35:20 10° N 05:39:49 55° WNW 05:44:08 10° SSW visible
12 Dec ? 04:23:22 10° NE 04:27:12 26° E 04:30:55 10° SSE visible
12 Dec ? 05:59:46 10° N 06:03:48 32° WNW 06:07:43 10° SW visible
12 Dec ? 16:58:12 10° SSW 17:02:30 34° W 17:06:51 10° NNW visible
13 Dec ? 04:47:05 10° NNE 04:51:29 46° E 04:55:41 10° S visible
13 Dec ? 06:24:29 10° NNW 06:27:41 19° WNW 06:30:49 10° WSW visible
13 Dec ? 17:23:19 10° SW 17:26:49 20° W 17:30:21 10° NW visible
14 Dec ? 05:11:05 10° NNE 05:15:39 84° ESE 05:20:00 10° SSW visible
14 Dec ? 17:49:33 10° WSW 17:51:13 12° W 17:52:54 10° WNW visible
15 Dec ? 04:00:08 10° NE 04:02:44 15° E 04:05:18 10° SE visible
15 Dec ? 05:35:18 10° N 05:39:43 54° WNW 05:43:57 10° SSW visible
16 Dec ? 04:23:19 10° NE 04:27:06 26° E 04:30:44 10° SSE visible
16 Dec ? 05:59:44 10° N 06:03:40 31° WNW 06:07:30 10° SW visible
16 Dec ? 16:58:09 10° SSW 17:02:27 34° W 17:06:46 10° NNW visible
17 Dec ? 04:47:02 10° NNE 04:51:21 46° E 04:55:30 10° S visible
17 Dec ? 06:24:29 10° NNW 06:27:33 19° WNW 06:30:35 10° WSW visible
17 Dec ? 17:23:17 10° SW 17:26:45 20° W 17:30:15 10° NW visible
18 Dec ? 05:11:02 10° NNE 05:15:31 85° ESE 05:19:49 10° SSW visible
18 Dec ? 06:50:07 10° NW 06:51:21 11° WNW 06:52:35 10° WNW visible
18 Dec ? 17:49:36 10° WSW 17:51:09 11° W 17:52:43 10° WNW visible
19 Dec ? 04:00:04 10° NE 04:02:37 15° E 04:05:07 10° SE visible
19 Dec ? 05:35:15 10° N 05:39:35 53° WNW 05:43:45 10° SSW visible
